Location: Seattle
(47.6064°N, 122.3308°W)
Time: 23:44:26
(UTC-08:00)

ORBCOMM FM 5 DEB - Visible Passes

Search period start: 01 December 2023 00:00
Search period end: 11 December 2023 00:00
Orbit: 754 x 812 km, 45.0° (Epoch: 08 November)

Date Brightness Start Highest point End Pass type
(mag) Time Alt. Az. Time Alt. Az. Time Alt. Az.
01 Dec ? 18:12:31 10° W 18:17:44 53° SSW 18:20:52 23° SE visible
01 Dec ? 19:58:31 10° W 20:01:23 21° SW 20:01:23 21° SW visible
02 Dec ? 17:37:46 10° W 17:42:59 57° SSW 17:48:08 11° ESE visible
02 Dec ? 19:23:37 10° W 19:28:00 26° SSW 19:28:40 25° SSW visible
03 Dec ? 17:03:00 10° W 17:08:15 60° SSW 17:13:33 10° ESE visible
03 Dec ? 18:48:46 10° W 18:53:19 29° SSW 18:56:05 19° SSE visible
04 Dec ? 18:13:56 10° W 18:18:38 32° SSW 18:23:23 10° SSE visible
05 Dec ? 17:39:06 10° W 17:43:56 36° SSW 17:48:49 10° SE visible
05 Dec ? 19:26:55 10° WSW 19:28:29 11° SW 19:30:04 10° SSW visible
06 Dec ? 17:04:17 10° W 17:09:13 39° SSW 17:14:12 10° SE visible
06 Dec ? 18:51:21 10° WSW 18:53:51 13° SW 18:56:23 10° SSW visible
07 Dec ? 18:16:07 10° WSW 18:19:13 16° SW 18:22:21 10° S visible
08 Dec ? 17:41:01 10° W 17:44:34 18° SW 17:48:09 10° S visible
09 Dec ? 17:06:00 10° W 17:09:55 21° SW 17:13:49 10° SSE visible
